User: anonymous   Login
Location: Nag� el Ma?a??a
(24.0667°N, 32.8833°E)
Time: 18:52:32
(UTC+00:00)
Language:

ATLAS 2AS CENTAUR R/B - Orbit

View from above orbital plane
View from above orbital plane
View from above satellite
View from above satellite

Ground track
Ground track

The orbit data is extracted from the following two-line orbital elements,

1 28096U 03054B   21335.69696800 0.00000000  00000-0  00000-0 0    08
2 28096  63.6782 262.6176 0197513 210.5650 149.4350 13.40875623    09
Epoch (UTC): 01 December 2021 16:43:38
Eccentricity: 0.0197513
inclination: 63.6782°
perigee height: 958 km
apogee height: 1254 km
right ascension of ascending node: 262.6176°
argument of perigee: 210.5650°
revolutions per day: 13.40875623
mean anomaly at epoch: 149.4350°
orbit number at epoch: 0

The dashed part of the orbit path shows where the satellite is in the earth's shadow,  

DLR